Hourly Data Report for October 19, 2013

All times are specified in Local Standard Time (LST). Add 1 hour to adjust for Daylight Saving Time where and when it is observed.

KITCHENER/WATERLOO
ONTARIO

43°27'39.000" N
80°22'43.000" W
321.60 m
6144239
71368
YKF

Download Data

Hourly Data (October 2013)
Hourly Data Report for October 19, 2013
Temp Definition
°C
Dew Point Temp Definition
°C
Rel Hum Definition
%
Wind Dir Definition
10's deg

Wind Spd Definition
km/h
Visibility Definition
km
Stn Press Definition
kPa
Hmdx Definition


Wind Chill Definition


Weather Definition


TIME
00:00 Legend Double Dagger 7.1 4.7 85 27 5 16.1 97.27     LegendNANA
01:00 Legend Double Dagger 6.6 4.6 87 25 5 16.1 97.28     LegendNANA
02:00 Legend Double Dagger 6.9 5.1 88 25 9 16.1 97.25     LegendNANA
03:00 Legend Double Dagger 7.5 5.5 87 23 9 16.1 97.21     LegendNANA
04:00 Legend Double Dagger 6.9 5.2 89 21 8 16.1 97.19     LegendNANA
05:00 Legend Double Dagger 5.9 5.0 94 20 8 8.1 97.20     LegendNANA
06:00 Legend Double Dagger 5.9 4.9 93 21 8 9.7 97.16     LegendNANA
07:00 Legend Double Dagger 6.0 4.9 93 19 9 9.7 97.15     LegendNANA
08:00 Legend Double Dagger 6.5 5.4 92 LegendMM 4 9.7 97.09     LegendNANA
09:00 Legend Double Dagger 7.4 5.6 88 20 13 14.5 97.10     LegendNANA
10:00 Legend Double Dagger 8.6 5.7 82 22 15 16.1 97.04     LegendNANA
11:00 Legend Double Dagger 9.3 4.5 72 25 18 16.1 96.94     LegendNANA
12:00 Legend Double Dagger 7.8 5.6 86 24 17 14.5 96.91     LegendNANA
13:00 Legend Double Dagger 7.3 5.9 91 22 13 11.3 96.82     LegendNANA
14:00 Legend Double Dagger 7.3 6.0 92 22 13 14.5 96.71     LegendNANA
15:00 Legend Double Dagger 7.2 6.0 92 23 15 16.1 96.68     LegendNANA
16:00 Legend Double Dagger 6.1 4.7 91 26 21 9.7 96.69     LegendNANA
17:00 Legend Double Dagger 5.9 4.6 91 25 17 16.1 96.71     LegendNANA
18:00 Legend Double Dagger 6.1 4.6 90 26 28 16.1 96.74     LegendNANA
19:00 Legend Double Dagger 4.3 2.8 90 27 13 16.1 96.79     LegendNANA
20:00 Legend Double Dagger 4.9 3.6 91 25 18 16.1 96.88     LegendNANA
21:00 Legend Double Dagger 4.4 2.9 90 25 13 16.1 96.92     LegendNANA
22:00 Legend Double Dagger 4.9 3.4 90 23 18 16.1 96.99     LegendNANA
23:00 Legend Double Dagger 3.9 2.1 88 23 15 16.1 97.01     LegendNANA

Notes on Data Quality.

Legend

  • E = Estimated
  • M = Missing
  • NA = Not Available
  • ‡ = Partner data that is not subject to review by the National Climate Archives
Date modified: